Wind_Speed
26 27 29 28 28 29 29 29 30 29 30 31 30 30 29 28 28 28 29 28 27 28 27 25 23 22 19 17 18 18 15 14 13 11 9 8 7 7 7 8 8 8 7 6 5 5 4 4 5 5 5 5 5 6 7 8 8 8 8 9 9 8 7 9 8 7 7 9 9 5 5 6 7 9 7 5 4 4 6 6 6 3 1 1 2
26 28 29 29 29 28 29 30 30 30 31 32 32 32 30 29 29 30 30 30 29 29 28 26 24 23 21 18 17 17 16 16 15 13 9 8 6 6 8 9 8 8 8 7 5 5 4 4 4 5 4 4 5 6 6 8 8 7 7 8 11 10 7 8 8 8 7 7 8 7 6 6 5 7 5 4 5 4 4 7 8 4 0 1 1
26 29 29 30 30 29 29 30 31 31 31 33 33 33 31 30 31 31 32 32 31 30 29 27 25 24 22 18 16 16 15 15 13 14 11 8 6 5 7 9 8 8 8 7 6 5 4 4 4 5 4 3 4 5 5 6 7 7 7 8 12 10 7 9 9 8 5 4 8 9 7 7 6 5 5 5 5 4 4 6 7 5 1 1 2
24 28 30 30 30 31 30 30 31 31 31 33 34 34 33 32 33 32 33 34 33 32 30 28 26 24 22 19 16 14 13 14 12 13 13 8 7 6 8 8 8 8 8 7 7 6 4 4 4 4 4 3 4 5 5 5 5 6 7 8 11 10 7 8 8 6 6 7 6 7 8 8 7 7 7 7 6 5 6 6 6 5 3 3 4
25 27 29 31 31 32 32 31 31 32 32 34 35 36 34 34 35 34 34 34 33 34 32 29 26 24 22 19 18 15 13 14 14 14 15 11 7 7 7 8 8 8 8 8 7 7 6 5 5 5 4 4 5 5 6 7 5 5 7 9 11 11 8 6 6 6 7 10 6 4 5 6 7 7 5 6 6 4 6 5 4 6 6 4 5
26 28 29 31 32 32 32 32 32 32 33 34 35 36 35 35 37 36 35 34 33 35 35 31 28 26 25 23 23 20 15 17 17 15 16 15 10 7 6 7 8 8 8 8 7 7 7 6 5 5 4 4 4 5 6 7 6 6 6 8 11 13 11 7 7 5 6 9 7 5 6 5 7 7 2 3 5 4 7 4 3 5 10 3 3
26 29 30 31 32 33 33 33 34 33 33 34 34 35 35 37 39 39 37 36 34 35 36 34 31 29 28 26 26 23 18 18 18 16 14 14 13 8 7 6 7 8 8 8 8 7 6 6 6 5 5 4 3 4 5 5 5 6 5 6 8 11 12 10 8 4 4 9 7 4 3 2 5 6 2 3 5 5 8 5 3 3 10 4 4
27 29 31 33 34 34 34 34 35 34 33 34 34 36 36 37 40 41 39 37 35 35 36 36 35 33 31 28 27 26 21 19 19 18 14 11 13 12 10 8 6 7 8 8 8 7 7 6 6 6 5 5 4 4 4 3 4 6 5 5 6 8 12 13 9 4 5 6 3 3 2 0 4 5 1 3 3 3 5 5 3 3 5 4 3
31 32 32 33 34 34 34 34 34 33 33 35 35 36 37 38 40 41 41 39 37 36 37 37 36 35 33 30 29 27 24 20 20 19 16 12 12 13 12 10 8 7 8 9 8 8 8 7 6 7 6 6 5 3 3 3 5 5 4 6 6 7 10 13 11 7 6 3 4 6 6 3 5 5 2 3 1 2 4 5 5 5 5 5 0
33 33 33 33 33 33 34 34 34 34 34 35 35 35 37 38 40 41 42 41 39 38 38 38 37 36 35 33 30 29 26 22 20 19 18 16 14 14 14 13 11 8 8 10 10 9 9 8 7 7 7 6 6 5 4 4 4 4 5 5 5 6 7 9 11 10 9 4 5 9 8 5 5 4 3 2 1 4 2 2 2 8 8 5 2
34 34 33 34 35 34 34 34 34 34 33 34 34 34 36 39 41 42 42 42 41 40 39 39 39 38 37 35 33 31 28 24 21 20 20 20 19 17 16 16 14 11 8 10 11 10 10 9 8 8 7 7 7 8 8 6 4 4 5 5 5 5 6 7 9 10 10 7 3 8 9 5 5 5 2 1 3 4 4 6 5 4 5 4 2
34 33 33 34 35 34 33 34 35 35 35 35 35 36 37 39 42 43 42 42 42 42 41 40 40 39 38 37 35 33 30 27 24 22 21 21 21 20 18 17 16 13 11 11 11 12 11 10 10 9 9 8 8 9 8 7 5 4 4 5 6 6 5 5 7 8 8 8 5 6 7 5 4 4 3 1 4 2 4 2 3 4 2 1 1
34 33 34 34 36 37 35 34 36 38 38 36 36 37 37 39 42 43 44 44 44 43 43 41 40 39 38 37 36 34 32 30 28 25 23 23 22 22 21 19 18 16 14 13 12 12 13 12 11 11 10 9 9 9 9 9 9 7 6 6 6 6 6 5 5 6 7 8 8 5 3 4 3 2 2 3 2 0 2 1 1 2 2 1 1
34 34 33 33 37 40 37 35 37 40 41 39 37 37 39 39 42 44 45 45 45 45 44 43 42 40 38 37 36 35 34 32 30 28 26 25 23 22 21 20 19 17 17 16 14 13 13 13 13 12 11 11 9 9 10 11 11 11 9 7 6 6 6 6 5 6 6 7 9 8 6 5 4 3 2 3 4 2 3 1 2 3 3 2 2
35 35 34 35 39 39 37 37 39 41 43 42 39 39 40 41 42 45 45 45 45 45 45 44 43 41 39 38 37 36 35 33 32 30 29 27 25 24 22 21 20 19 18 17 16 15 14 13 13 14 13 12 11 10 10 10 10 11 10 8 8 7 7 7 6 6 5 6 8 10 10 6 4 5 3 2 4 4 2 3 6 6 5 4 3
36 37 36 37 40 40 37 37 39 42 43 41 38 40 42 42 44 45 45 46 46 46 45 44 44 43 41 40 38 37 36 35 33 32 30 29 27 25 24 23 21 19 18 18 18 17 17 15 13 14 14 13 12 12 11 11 11 11 10 9 9 8 8 7 7 6 6 7 6 8 11 8 5 6 5 3 5 6 7 9 9 6 5 5 3
39 40 39 37 39 40 38 38 41 44 46 44 41 41 43 44 45 46 45 46 47 46 46 45 44 43 42 41 40 39 38 37 35 33 32 30 28 27 25 24 22 20 18 18 19 20 20 18 15 14 15 14 13 13 13 12 11 11 11 10 10 9 9 8 8 8 7 7 7 6 8 9 9 9 9 7 6 9 10 9 8 6 5 5 5
40 38 38 38 39 40 41 44 47 47 47 47 45 43 44 45 45 47 47 47 47 47 46 45 44 43 43 42 41 40 39 38 36 35 32 31 30 29 27 25 24 23 20 19 20 21 21 20 17 16 15 15 15 14 14 13 13 12 11 11 11 10 10 10 9 9 8 8 8 7 6 7 7 7 9 8 6 8 8 6 6 5 5 5 5
39 37 38 41 42 43 45 48 49 49 48 46 43 41 42 43 44 46 47 46 46 47 46 45 45 44 43 42 41 40 39 38 36 35 33 31 31 30 28 27 26 24 23 21 21 22 22 22 20 18 17 17 16 15 15 14 14 14 13 12 12 11 11 11 10 10 9 9 9 10 9 9 7 6 7 7 6 8 7 5 5 5 6 6 6
39 39 38 40 43 45 46 48 49 49 47 45 42 41 40 40 41 43 44 43 44 46 46 45 45 45 44 43 42 40 39 38 36 34 33 32 32 31 30 28 27 26 25 24 23 23 23 23 22 21 20 20 19 17 16 16 15 15 14 13 13 12 12 12 11 11 10 10 10 11 12 12 11 10 10 9 9 9 9 8 6 6 7 8 7
40 40 39 38 39 41 41 43 45 43 43 44 44 43 41 39 39 42 43 42 42 44 45 45 45 44 44 43 42 41 40 39 37 35 34 33 32 32 30 29 28 27 26 26 26 25 25 24 22 22 22 22 21 20 19 18 17 16 16 15 14 14 13 13 13 12 11 11 11 11 12 12 12 12 11 10 10 10 11 10 9 8 9 9 10
43 38 39 36 35 37 38 38 38 38 42 46 45 44 43 40 39 39 41 42 42 43 44 45 45 44 44 44 42 41 41 40 38 37 36 34 33 33 32 30 28 28 27 27 28 28 28 26 24 23 23 23 22 21 20 20 19 18 17 16 16 16 14 14 14 14 13 12 12 13 12 12 12 12 11 11 10 9 9 11 11 10 10 10 11
45 39 37 37 37 36 36 37 38 39 43 46 45 44 43 42 40 39 40 43 43 43 44 44 44 44 44 43 43 42 41 41 40 39 38 36 35 34 33 31 29 28 28 28 29 30 30 28 26 24 24 24 23 22 21 21 20 19 18 18 18 18 16 15 15 15 14 14 14 14 13 12 13 13 12 12 11 10 10 11 11 12 12 11 11
41 42 38 37 38 37 37 40 41 42 44 44 45 45 44 43 41 40 41 42 42 42 43 44 45 44 44 44 43 42 42 42 41 40 39 38 36 35 34 33 31 29 29 30 30 30 30 29 28 27 26 25 25 24 22 22 21 20 20 19 19 19 18 17 16 15 15 15 15 15 15 14 14 15 14 14 13 13 13 13 14 14 14 14 14
35 40 41 39 39 39 39 41 41 42 44 44 44 45 44 44 43 43 42 42 41 40 41 44 45 45 45 45 44 43 43 43 42 41 41 38 36 34 34 34 33 31 30 30 31 31 31 30 29 29 28 27 27 26 25 23 22 21 20 21 21 20 20 19 17 17 16 16 16 16 16 16 16 17 17 16 16 15 14 14 15 15 15 16 16
32 33 42 41 40 40 40 42 42 42 42 43 44 44 44 44 43 44 43 41 40 40 40 43 44 45 45 45 45 45 44 44 43 42 41 38 35 34 34 34 34 33 31 30 32 32 32 31 31 30 30 29 28 29 28 26 24 23 21 21 22 22 22 21 19 18 17 17 17 17 17 17 17 18 18 17 17 16 15 15 16 15 15 15 16
29 29 42 44 40 40 41 42 45 44 41 41 44 44 43 44 43 42 42 41 40 40 40 42 42 43 44 45 46 46 45 44 43 42 40 38 36 35 34 35 35 34 33 31 32 33 32 32 32 32 31 30 30 30 30 28 26 25 24 23 23 23 23 23 22 20 19 19 18 18 18 18 18 18 18 18 18 17 16 16 16 15 15 15 16
9 6 24 37 40 42 42 41 43 45 41 39 42 42 41 43 42 42 42 40 40 40 40 42 42 41 43 45 46 45 44 44 43 41 40 38 37 36 34 34 35 35 35 33 32 32 33 32 33 33 33 32 32 32 31 30 28 27 26 25 24 24 23 23 23 22 21 20 19 19 19 19 19 19 19 19 19 18 17 17 17 16 16 17 17
26 26 16 10 21 29 36 41 44 44 41 37 38 39 39 40 40 41 41 39 39 40 41 41 42 42 44 45 45 44 43 43 42 41 41 39 38 37 36 35 35 35 35 34 32 32 32 33 33 33 33 33 33 34 34 33 30 29 28 28 27 26 25 24 23 22 22 21 20 20 19 19 19 19 19 19 19 19 19 19 19 18 17 17 17
23 24 24 16 7 3 11 26 35 37 38 36 35 36 38 38 38 40 41 39 39 41 41 42 43 44 44 44 44 44 43 43 42 42 42 41 39 38 37 37 36 35 35 35 33 32 32 32 33 33 34 33 34 34 35 34 32 31 30 29 29 28 26 26 25 24 23 22 21 20 20 20 20 20 20 19 19 19 19 19 19 18 18 18 19
20 20 22 20 16 16 12 6 14 20 25 29 32 35 35 35 35 37 39 38 38 41 42 43 43 43 43 44 44 44 44 44 43 42 42 42 40 39 39 38 37 37 35 35 35 34 32 32 33 33 34 34 34 34 35 34 33 32 31 30 30 30 28 26 26 25 24 23 22 21 20 21 21 21 21 21 21 22 22 20 19 19 19 20 21
20 19 20 21 19 19 16 9 4 11 15 17 22 29 31 32 33 34 36 37 36 39 42 42 41 41 41 43 44 44 44 45 45 44 43 43 42 40 40 40 39 38 37 36 36 37 35 32 32 33 33 33 33 33 34 34 34 32 31 31 31 31 30 29 27 27 27 26 24 23 22 22 22 22 23 24 25 25 25 22 20 20 20 21 22
20 18 18 18 17 16 13 12 7 7 14 16 18 22 25 29 31 31 33 36 35 36 40 41 40 40 41 43 44 45 45 45 46 45 44 44 43 42 41 41 40 39 38 37 37 37 38 35 33 32 32 32 31 32 33 33 33 32 30 30 30 31 31 31 29 29 28 28 27 26 25 24 23 22 22 23 25 25 24 22 21 21 21 22 23
16 16 17 16 16 16 13 12 13 12 11 13 17 20 22 25 29 29 31 34 35 35 37 40 41 40 41 43 44 45 46 45 46 46 45 45 45 45 43 42 41 40 38 38 37 37 38 38 36 33 32 32 30 30 32 32 32 32 30 29 30 30 31 31 30 30 28 28 28 28 27 26 25 24 23 23 24 24 24 23 22 23 23 23 24
16 16 17 17 17 17 15 13 13 14 13 12 15 19 21 23 25 26 27 30 34 35 36 40 42 40 41 43 43 45 46 46 46 46 46 46 46 46 45 43 42 41 40 40 38 37 38 39 38 36 33 32 31 30 31 31 32 31 29 28 29 29 30 29 29 29 28 28 28 27 27 27 26 25 25 25 25 26 26 26 25 25 25 25 25
18 18 18 17 17 17 18 17 14 15 16 15 14 16 20 24 26 27 28 30 34 36 36 39 42 41 42 43 44 45 46 46 46 46 46 47 47 47 46 44 42 40 39 40 39 38 37 38 39 38 35 33 32 31 31 31 31 30 29 28 28 28 29 29 28 28 28 28 28 28 28 28 26 26 25 25 25 26 27 27 27 27 27 27 27
19 19 18 18 17 17 19 19 17 17 17 15 15 16 18 25 29 30 31 33 35 37 37 40 42 43 43 43 44 45 46 46 46 47 47 47 47 47 47 45 43 39 37 39 40 39 37 37 38 39 38 35 33 32 32 31 31 30 29 29 28 28 29 31 32 31 30 30 30 31 30 30 28 27 26 25 25 26 26 27 28 28 28 29 29
21 21 19 18 18 18 18 19 18 17 16 16 19 21 22 26 30 32 33 35 37 39 40 41 44 45 44 44 45 45 46 46 47 48 48 47 47 47 47 46 45 40 36 36 39 39 37 36 37 38 39 38 35 34 33 33 32 32 31 30 29 29 30 31 33 35 35 34 34 34 33 32 31 29 28 27 26 27 27 28 28 29 29 30 30
22 21 21 21 21 20 19 19 18 18 17 18 22 25 27 29 32 35 36 37 40 42 42 44 46 45 44 43 44 45 46 47 47 48 47 47 47 47 46 46 45 42 36 34 35 37 36 35 35 36 37 38 37 36 35 35 34 34 33 32 31 30 30 31 32 34 36 37 37 36 35 34 32 31 30 30 29 29 29 29 29 30 31 31 31
25 22 21 21 20 20 21 21 20 20 20 19 21 24 28 30 33 37 39 39 41 44 44 44 44 44 43 42 43 44 46 47 47 46 46 46 46 45 45 45 45 43 38 34 33 33 33 33 33 34 35 36 36 36 37 36 36 36 35 34 33 33 32 32 31 32 34 36 37 37 35 34 33 32 31 31 31 31 31 31 31 32 33 32 31
25 23 22 21 20 21 23 22 19 20 21 21 20 22 27 29 32 37 42 42 42 43 43 42 42 43 43 43 43 43 44 44 44 44 45 45 44 44 44 45 45 44 41 37 33 31 31 31 31 32 33 34 34 35 36 36 36 36 35 35 35 35 33 32 31 31 33 35 36 37 36 35 33 32 32 32 33 32 32 33 33 34 33 32 31
24 22 20 21 22 23 24 23 22 22 23 23 21 21 25 29 31 35 42 43 40 41 42 41 41 42 42 42 43 43 42 42 40 40 43 43 41 41 42 43 43 42 41 39 36 33 31 30 30 30 31 31 32 32 33 34 34 34 35 35 35 34 33 31 31 31 33 34 35 36 36 35 34 33 33 33 33 33 33 33 34 34 33 32 32
25 23 21 21 23 24 24 23 24 24 25 24 22 21 24 29 31 33 40 43 38 38 41 41 42 42 41 41 42 41 42 42 39 38 40 41 40 38 38 40 42 41 40 40 39 36 32 30 30 30 30 30 30 31 31 31 31 31 32 33 34 34 33 31 31 32 32 32 33 34 34 35 34 34 33 33 32 32 32 33 32 31 31 31 32
25 24 22 21 23 25 23 21 22 24 24 23 22 22 23 28 31 32 38 41 37 36 40 41 42 42 41 39 40 40 40 41 39 37 38 40 40 38 37 39 41 41 40 40 40 39 37 33 31 30 30 29 29 30 31 30 29 29 30 30 32 32 32 31 31 30 30 29 30 31 31 32 32 32 32 31 30 29 30 30 29 29 29 31 33
26 24 22 21 23 25 22 20 22 24 23 24 24 23 22 27 30 31 36 40 36 36 39 41 42 42 41 39 38 38 39 39 38 37 38 40 40 39 38 39 40 40 40 40 40 40 40 38 34 31 30 29 28 29 31 31 30 30 30 30 30 30 30 31 30 29 29 29 28 28 27 28 28 28 28 28 28 28 28 27 27 27 29 31 33
27 24 22 22 23 23 20 20 22 23 21 23 24 21 21 27 28 29 35 39 36 36 39 41 41 41 41 39 38 37 38 38 37 37 38 40 40 39 39 40 40 40 40 40 40 40 40 40 39 35 32 30 29 30 31 32 32 32 32 31 29 28 28 29 29 29 30 31 30 28 27 26 26 26 26 27 27 27 27 27 27 27 29 31 32
29 28 26 24 23 22 20 19 22 21 19 21 21 18 21 26 27 28 35 39 37 36 39 40 40 40 40 39 38 38 38 37 37 37 38 38 38 38 39 41 41 41 40 40 40 40 39 40 40 39 36 33 32 32 32 33 33 34 33 32 30 28 27 29 30 31 32 32 33 32 30 29 27 27 27 27 28 28 28 28 29 29 29 29 30
31 30 26 23 22 21 19 18 20 19 18 19 18 15 18 23 25 29 34 37 37 37 38 40 40 39 39 38 39 39 38 37 38 38 36 36 37 38 40 42 43 42 42 42 42 42 41 41 41 40 39 37 35 34 35 36 37 36 36 35 32 30 28 29 31 32 32 33 34 34 34 33 31 30 30 30 30 31 31 30 30 30 30 29 29
34 33 28 23 21 20 18 17 18 19 17 17 17 15 15 18 23 28 33 35 35 35 37 39 38 38 38 39 40 40 39 38 38 39 38 37 38 38 38 40 41 41 41 42 43 43 43 42 40 39 39 38 38 38 38 38 39 38 36 35 32 30 29 28 28 28 30 33 34 34 35 35 34 34 33 32 33 33 33 32 32 32 32 31 30
37 36 29 22 18 18 16 15 16 17 17 16 16 16 17 19 22 25 29 32 32 33 36 38 39 40 40 40 42 43 42 40 39 41 41 40 40 39 37 38 39 39 39 40 40 41 42 40 37 37 37 38 39 39 38 37 36 35 33 32 29 27 27 26 24 23 26 31 34 35 35 35 35 36 35 35 35 35 32 32 32 31 29 28 27
37 37 33 26 19 18 16 12 13 15 15 14 14 16 18 22 23 24 27 29 31 33 36 38 39 41 41 41 42 43 42 41 41 43 44 43 41 40 39 37 38 38 38 38 37 36 36 35 34 34 34 34 34 34 33 33 33 33 31 29 27 25 24 22 22 22 25 31 35 36 35 34 33 34 35 35 35 33 29 28 29 26 22 21 22
Wind_Direction
192 190 189 185 182 182 179 178 178 177 178 180 179 176 180 180 177 185 183 178 182 180 176 174 172 166 164 173 168 158 162 165 161 165 187 201 184 185 178 168 169 163 169 173 157 145 118 106 121 115 105 106 100 99 107 115 119 129 133 133 132 126 129 139 140 148 157 138 128 134 134 128 120 117 121 123 123 100 89 113 140 148 358 122 170
191 190 190 188 184 182 179 179 180 179 179 181 181 178 181 182 180 185 183 183 188 184 180 179 178 172 166 172 170 164 167 166 162 158 181 215 196 184 179 167 170 167 167 169 152 146 140 125 115 107 107 107 108 104 108 124 125 121 126 129 125 124 138 150 147 143 135 123 135 147 133 127 121 115 127 132 124 121 76 84 115 139 106 22 95
191 191 191 190 186 183 182 182 182 181 179 181 181 179 182 183 182 186 185 187 191 187 184 182 182 180 171 168 170 171 172 168 165 157 169 219 225 195 187 174 173 172 169 168 159 163 155 128 110 111 124 125 119 113 101 117 124 122 133 142 133 131 155 164 148 132 130 141 157 168 161 143 135 134 148 150 142 147 123 97 115 144 174 22 47
195 191 191 192 187 184 185 183 183 183 181 181 182 180 184 185 183 186 186 189 193 189 188 186 184 184 176 168 168 178 182 168 168 166 163 202 236 208 189 181 176 176 178 174 171 177 171 146 137 136 146 148 128 111 107 119 133 133 136 142 138 134 155 164 146 138 155 165 182 203 187 161 147 150 153 160 164 153 144 131 132 178 229 43 88
197 194 193 194 191 187 186 185 184 185 183 183 182 181 184 187 186 187 187 190 195 192 190 189 185 183 178 172 169 177 191 177 171 176 168 177 222 219 190 184 182 179 182 182 180 183 180 172 161 156 162 153 130 119 131 140 138 131 130 137 140 140 147 156 147 152 169 172 191 208 165 138 129 141 155 169 178 164 154 140 117 195 234 20 90
195 196 197 197 194 190 187 186 187 187 187 185 184 183 185 188 188 188 188 190 195 195 193 191 188 184 180 178 174 170 184 186 176 179 177 171 187 224 210 185 185 184 183 185 185 185 183 183 174 166 173 159 141 139 148 149 139 132 133 138 146 148 147 149 150 167 196 176 155 117 102 84 109 129 143 160 166 154 157 168 70 182 222 303 63
196 198 199 198 196 193 190 188 189 189 188 186 186 186 187 191 191 190 190 190 194 196 196 195 193 191 187 183 179 170 176 190 182 177 185 178 173 205 236 211 192 189 188 189 188 191 188 186 185 180 175 161 155 157 147 142 141 142 144 143 151 154 148 148 151 156 167 146 123 103 84 34 114 119 78 114 141 147 158 182 60 133 222 255 25
198 199 199 199 197 195 193 191 191 191 189 187 188 189 189 193 194 193 192 191 195 198 198 199 199 199 195 190 187 181 178 189 188 176 182 190 173 182 222 237 215 191 192 196 192 196 198 192 191 186 179 173 175 172 145 129 148 154 154 149 153 156 147 145 148 135 132 136 151 166 133 279 132 112 106 137 135 148 150 173 120 76 205 190 17
198 199 200 200 197 196 197 195 193 192 190 189 189 190 191 195 195 195 195 194 197 201 201 202 204 204 202 198 195 193 188 189 194 183 177 189 184 180 201 228 233 209 199 204 199 200 205 202 196 188 185 187 178 168 156 153 165 163 153 153 155 154 147 147 156 155 138 161 209 166 125 127 132 92 101 155 182 192 144 157 155 123 157 170 98
196 197 199 199 196 197 198 197 195 193 193 192 191 190 191 195 198 197 199 199 199 204 206 204 206 208 207 205 203 202 198 195 200 198 187 187 188 186 189 207 230 228 206 208 206 202 207 206 202 195 189 191 177 168 192 203 185 171 164 164 157 152 150 154 166 161 142 149 204 177 150 143 154 124 107 131 167 194 198 359 119 141 148 144 118
195 196 198 199 198 199 199 198 196 195 195 194 192 192 191 195 200 199 201 202 202 205 209 207 207 209 211 211 210 208 205 199 201 208 206 197 195 197 194 200 220 233 222 217 211 206 209 209 207 202 194 194 186 179 192 208 206 192 177 173 169 163 157 158 165 161 147 139 167 180 166 152 172 162 130 106 149 185 292 359 48 101 123 119 138
192 194 195 196 198 200 200 198 197 196 196 195 193 194 194 195 200 201 201 203 204 206 210 210 210 211 213 214 214 213 211 205 203 209 215 211 207 209 209 208 216 227 229 227 220 214 212 209 207 205 197 196 198 191 188 190 195 217 208 185 183 180 171 167 164 159 158 153 147 163 157 140 155 146 119 162 157 174 290 335 49 11 29 105 300
188 192 193 194 196 198 199 196 196 196 197 198 197 196 196 197 201 203 203 204 205 208 211 212 213 213 214 215 215 216 215 213 210 210 216 220 217 215 217 220 221 223 225 228 227 223 218 211 207 208 201 200 205 197 190 190 185 200 226 210 192 189 180 181 173 161 168 165 156 163 163 157 183 163 143 198 200 70 336 247 262 322 338 328 293
187 191 192 193 196 197 198 197 196 197 198 198 198 198 197 198 201 204 205 205 205 208 212 214 215 215 215 215 215 216 217 218 216 213 215 221 223 221 222 226 229 228 228 228 226 225 226 216 207 209 207 204 209 203 199 203 192 193 214 214 200 203 189 185 185 175 181 173 163 177 195 191 211 209 153 187 229 277 2 17 233 240 248 275 277
186 189 189 193 197 196 196 198 199 200 200 199 198 200 200 199 203 205 206 205 205 208 212 214 215 216 216 216 216 217 217 218 218 217 217 219 225 227 227 230 234 236 233 228 223 221 228 226 210 207 211 207 209 210 206 210 206 201 211 210 204 209 200 194 193 182 194 197 177 182 187 183 207 209 185 197 229 251 276 222 231 237 235 245 257
185 188 188 193 199 199 197 199 202 202 202 200 199 201 202 202 204 206 206 206 206 208 211 214 216 216 217 217 217 218 218 218 219 219 218 220 225 229 230 232 234 237 236 228 220 218 225 232 219 207 212 213 210 213 212 210 210 210 213 212 208 212 209 205 204 194 198 212 209 196 185 177 185 198 196 215 232 234 232 232 244 251 229 230 243
187 189 190 192 195 197 198 198 202 204 203 200 200 202 204 204 205 205 206 206 207 208 211 214 215 215 217 218 218 219 220 220 221 220 219 219 225 228 230 233 229 227 230 226 220 217 222 231 230 214 212 217 214 214 216 214 211 212 213 211 211 216 217 213 212 207 197 206 223 222 201 188 186 197 202 200 215 231 240 249 251 248 229 225 235
187 188 190 195 196 196 199 202 204 206 205 201 200 203 205 206 206 206 205 207 211 211 212 214 214 215 216 217 218 219 221 221 221 221 220 218 222 224 226 230 227 220 218 221 219 217 221 227 229 221 215 218 219 216 216 217 215 214 213 212 212 216 221 218 217 215 204 203 216 227 244 236 209 207 209 203 227 243 243 253 251 245 253 252 249
182 182 186 193 197 199 202 206 207 205 205 203 200 203 207 206 205 206 207 209 213 212 211 213 215 216 217 217 218 219 220 221 220 221 221 217 219 222 223 225 228 221 213 213 217 218 220 224 225 223 219 219 220 220 219 219 219 218 214 214 214 215 220 221 219 222 218 212 212 210 225 241 237 231 219 209 245 266 256 252 254 253 263 269 273
174 178 184 189 194 199 202 205 206 203 203 203 200 203 208 207 204 203 205 207 209 211 211 211 213 216 217 217 218 218 219 219 218 218 219 217 217 220 221 221 225 225 213 209 216 220 220 222 222 221 221 221 219 218 220 221 221 222 220 217 219 218 220 221 220 223 226 224 223 217 216 224 227 229 226 209 214 246 261 265 265 265 270 275 278
175 178 184 187 190 194 196 199 200 198 200 201 200 202 205 208 207 202 201 202 204 208 210 210 212 214 215 217 218 218 218 218 216 215 216 217 216 217 221 220 220 223 216 208 213 218 220 222 221 220 222 224 223 220 219 221 222 223 224 222 223 224 220 221 224 225 225 227 232 233 230 231 231 232 236 228 216 228 252 267 272 266 267 273 275
177 180 182 184 187 188 189 192 191 193 200 202 201 201 202 206 209 205 202 201 200 203 207 209 211 212 213 217 218 217 216 216 216 215 215 217 216 215 218 218 216 218 218 211 210 214 218 221 220 220 221 222 225 224 220 222 223 223 225 224 224 227 225 221 225 227 227 229 235 242 241 238 241 242 242 243 237 229 243 264 278 281 280 279 276
176 179 181 183 186 187 187 188 187 191 200 203 202 201 201 203 207 208 205 201 199 201 205 208 208 209 212 216 217 217 216 216 217 217 217 219 219 216 216 217 214 213 215 212 211 213 217 219 220 219 218 218 223 226 222 223 226 224 225 227 226 230 233 228 226 228 231 233 237 244 246 240 243 248 247 248 245 233 230 244 259 271 280 281 276
176 177 179 181 184 185 186 188 190 194 197 201 201 200 201 202 205 209 209 204 199 198 202 207 209 210 212 214 215 216 217 217 217 218 218 218 219 218 217 216 213 210 212 213 212 213 215 218 219 218 217 216 218 225 226 224 228 227 224 228 230 234 238 237 232 232 233 235 237 242 244 242 243 246 247 248 249 242 234 233 238 244 253 261 264
183 179 177 177 178 180 186 188 193 197 198 199 200 200 201 202 203 209 211 207 200 195 198 205 209 210 210 212 214 215 216 218 216 216 217 216 214 215 217 217 213 209 210 212 213 213 214 216 217 217 217 217 217 223 227 225 226 229 227 227 230 234 239 241 240 239 239 239 241 242 241 240 242 244 246 247 248 249 245 241 242 244 248 257 264
188 180 172 172 177 182 189 192 193 196 195 196 198 199 201 201 203 207 209 207 201 196 196 201 206 207 207 210 213 213 215 218 216 215 216 214 208 208 214 216 213 209 209 211 213 214 213 215 217 217 218 219 218 220 226 226 226 229 232 230 230 232 236 241 244 244 243 243 244 245 242 240 241 242 243 246 247 248 248 246 248 250 252 256 262
183 184 174 174 180 185 192 196 196 196 195 196 198 198 200 202 203 206 208 206 201 197 197 199 201 202 203 207 211 213 213 216 215 212 211 210 205 204 210 213 212 209 207 208 212 214 215 216 219 218 217 218 219 219 224 227 226 227 233 235 235 235 236 240 244 247 247 246 247 249 246 242 242 243 243 244 246 247 248 251 253 255 257 258 260
96 121 163 172 179 184 191 197 199 198 196 198 199 197 201 205 203 204 206 205 201 198 198 200 199 199 201 205 209 211 211 211 212 209 207 207 205 203 206 209 210 208 206 206 210 213 215 216 219 220 217 216 219 220 222 227 227 225 228 234 236 237 237 239 242 245 247 247 247 250 251 247 244 245 245 245 246 247 249 254 258 259 260 262 263
38 34 51 133 172 181 192 199 201 199 197 197 198 197 201 204 202 203 205 204 202 199 198 200 200 200 202 204 205 207 207 208 208 207 205 205 205 203 204 207 209 208 206 205 207 212 215 214 217 221 219 217 219 220 221 226 229 226 225 229 234 236 237 238 241 243 244 244 244 244 248 251 249 248 249 249 250 250 251 253 255 258 260 261 264
37 32 28 31 57 122 208 205 201 199 197 196 197 197 199 201 201 202 202 202 202 201 199 200 202 202 203 202 202 204 205 206 207 206 205 203 204 203 203 206 210 211 207 204 204 209 214 215 216 219 220 218 218 222 225 229 232 232 228 227 231 235 237 237 239 243 244 244 244 241 240 243 248 251 254 256 257 257 257 255 253 253 256 261 266
33 28 23 25 27 20 2 263 216 207 203 200 198 197 199 201 201 201 201 201 202 202 201 202 203 203 203 202 202 202 203 205 206 207 205 203 203 204 203 205 210 212 211 207 204 206 211 216 217 219 222 222 221 223 230 234 235 236 234 230 230 235 238 238 237 239 241 242 243 244 244 242 241 244 248 252 255 258 261 260 256 254 256 262 268
21 17 13 12 11 16 19 5 275 233 236 236 215 203 201 203 204 203 202 201 202 202 202 203 204 203 203 203 202 202 202 204 205 206 207 204 202 203 204 204 208 212 213 210 207 205 208 213 216 217 221 226 226 225 230 236 236 236 236 235 233 233 236 239 239 237 238 241 241 242 244 245 243 241 242 246 249 255 261 263 259 257 258 262 266
8 4 1 358 348 346 356 1 346 260 253 260 242 221 212 208 207 208 204 201 203 203 202 203 204 204 204 204 203 202 203 203 204 206 207 206 202 202 205 205 207 211 213 212 210 208 207 210 215 217 218 224 226 225 228 234 237 238 237 236 235 234 234 237 241 242 241 242 245 246 245 245 245 243 243 247 252 257 262 262 259 258 258 260 264
360 355 348 341 330 322 323 332 334 313 273 248 241 237 227 217 214 213 209 205 205 205 203 203 205 205 206 205 204 203 204 204 205 205 206 205 203 202 205 206 206 209 212 213 212 211 209 209 213 218 220 221 223 225 228 232 236 239 238 236 236 235 234 235 239 244 246 245 247 250 251 250 247 244 242 245 251 258 263 263 261 261 261 263 266
351 346 337 330 323 317 313 308 308 307 295 270 254 245 232 225 223 218 214 211 208 207 206 204 204 205 206 206 205 205 204 205 205 205 205 206 205 203 204 206 206 207 211 214 213 213 213 212 212 216 221 222 222 224 228 231 235 238 240 238 236 234 232 233 236 241 245 249 249 251 253 254 253 250 245 243 245 252 260 265 267 266 266 268 270
341 335 328 323 316 310 309 304 297 299 301 289 270 250 231 224 222 216 213 216 214 211 208 205 204 206 207 207 207 206 205 205 205 205 206 206 206 204 204 205 205 206 210 214 214 214 214 215 214 214 218 222 223 224 227 231 236 240 240 239 237 235 231 231 232 235 239 244 248 251 253 254 255 255 253 249 247 250 255 262 267 270 273 274 275
333 324 316 315 313 308 304 299 290 292 296 283 264 256 240 226 220 213 211 215 215 213 211 208 206 207 208 208 208 207 206 206 205 206 206 207 207 206 205 204 204 204 206 211 214 214 214 215 216 216 217 220 223 224 226 229 235 240 241 239 237 236 234 233 232 233 235 237 241 247 252 254 256 258 258 257 255 254 255 259 264 268 272 275 279
328 320 315 313 307 299 291 285 278 276 278 271 258 251 242 231 222 214 213 214 212 211 211 210 209 208 208 209 208 207 207 206 206 206 207 207 207 207 206 205 205 204 203 207 212 214 215 216 219 220 220 220 222 225 227 228 232 237 239 239 238 237 236 236 235 235 236 236 239 245 249 253 256 259 261 262 261 259 259 261 263 266 269 272 277
326 321 315 309 301 293 287 282 280 277 273 268 257 246 240 236 226 215 214 215 212 210 211 212 211 208 208 208 208 208 208 207 207 207 207 207 207 207 207 207 207 206 204 205 211 214 215 217 219 222 225 225 224 225 228 229 231 233 235 238 238 237 237 238 238 238 238 239 241 246 249 252 256 259 260 261 263 263 263 265 266 266 268 272 276
324 319 312 306 300 299 296 287 284 286 280 270 262 250 244 240 229 218 215 216 214 211 211 212 211 208 206 208 208 207 207 208 208 207 207 207 207 207 207 207 208 208 206 206 210 212 213 214 216 220 226 230 229 227 229 232 233 234 235 235 237 239 241 242 242 241 241 242 244 247 250 253 256 258 259 260 262 263 265 267 267 266 268 273 276
318 315 313 311 304 299 294 283 281 290 286 275 266 255 247 242 232 220 216 215 215 212 209 210 210 207 206 208 208 207 207 208 209 208 208 208 208 208 208 208 208 208 208 208 209 211 212 213 216 218 223 229 232 232 231 233 236 237 237 237 239 243 246 247 247 245 245 245 246 249 251 254 257 258 259 260 261 263 264 266 266 267 270 273 272
315 311 312 313 306 298 290 280 279 288 290 281 269 257 247 241 235 225 217 214 214 211 208 208 208 206 205 207 208 208 208 208 208 207 207 208 208 208 209 209 208 209 210 210 209 211 213 214 216 218 220 224 230 235 235 234 235 239 240 241 243 247 250 250 249 249 248 248 249 252 254 257 259 259 260 260 261 262 263 263 264 267 268 268 266
320 314 314 314 308 300 292 287 287 289 289 283 274 264 249 238 236 231 220 213 212 209 206 207 208 206 204 205 207 207 207 206 205 205 205 205 204 204 205 208 208 208 210 211 210 209 212 215 217 218 220 222 225 232 238 239 237 238 241 243 246 249 251 251 249 250 251 251 252 253 255 258 260 261 261 261 261 261 261 261 263 264 263 263 262
322 316 313 315 312 303 294 293 297 296 291 284 278 275 257 237 236 235 220 209 209 208 205 205 207 206 204 205 206 206 206 205 205 204 203 202 202 200 201 205 207 207 208 210 211 210 210 213 216 218 220 221 223 228 235 240 241 241 241 243 246 247 248 248 247 248 249 250 252 253 253 255 258 260 261 262 262 262 261 261 262 261 259 258 258
324 318 314 316 314 306 298 297 302 302 295 282 277 277 259 237 235 236 219 206 205 207 203 203 206 205 203 204 204 205 207 206 205 205 203 201 201 199 200 203 205 206 207 208 210 212 212 214 215 217 219 220 222 226 230 235 239 243 244 245 246 245 244 243 244 243 242 242 243 247 250 251 253 256 258 260 260 260 261 261 260 259 258 258 260
325 321 318 317 314 307 302 301 303 304 293 274 270 269 251 236 235 232 215 202 202 206 203 202 205 204 202 203 204 205 207 207 206 207 205 203 201 199 199 203 205 205 207 208 210 212 214 215 216 217 218 219 219 223 229 233 237 241 245 245 245 244 242 241 241 240 238 236 234 237 241 244 245 248 251 254 257 258 259 259 259 259 261 262 262
329 326 324 323 319 312 305 300 300 301 288 272 267 258 241 235 234 226 210 200 201 206 202 200 203 202 202 204 204 204 205 205 205 206 205 204 202 200 200 203 204 204 205 207 209 211 213 215 216 217 218 219 219 222 227 233 238 241 243 242 241 241 240 237 235 236 236 236 234 233 234 236 238 241 244 248 252 252 252 253 256 260 262 263 263
333 329 328 327 323 315 306 298 297 294 284 274 267 248 233 233 228 216 204 198 201 205 202 200 202 202 202 204 204 204 204 204 203 203 202 202 202 201 202 205 207 207 206 207 209 211 213 215 217 217 218 219 220 222 225 231 238 242 243 242 240 239 237 234 232 232 232 234 235 234 233 234 235 236 239 241 243 245 247 250 254 259 262 263 263
339 334 330 329 328 323 312 299 291 285 277 271 260 238 223 219 213 205 198 197 200 203 202 201 201 202 203 205 205 204 203 202 201 200 200 201 200 200 202 206 209 210 210 210 212 214 216 217 218 219 220 220 221 223 226 231 238 242 244 244 243 241 240 238 235 233 232 233 234 234 234 235 235 236 238 240 242 245 247 248 252 257 261 263 261
344 338 333 332 336 335 323 301 283 275 268 263 254 235 215 204 200 198 197 199 201 202 202 201 202 204 206 206 205 204 202 200 199 199 199 199 198 197 200 204 208 209 209 211 214 217 219 218 217 220 224 224 226 228 227 229 234 239 242 245 246 246 246 244 240 237 236 233 232 233 235 236 236 237 237 239 242 246 248 250 254 259 261 260 259
348 345 340 339 344 346 338 312 283 270 260 256 252 235 214 204 201 199 199 202 205 205 202 202 203 206 207 206 204 203 201 199 199 200 200 197 195 194 196 201 205 207 207 209 212 215 216 216 215 219 223 223 225 227 226 226 230 235 237 239 241 241 243 242 238 238 237 232 229 230 233 235 237 238 239 241 243 246 247 249 252 255 254 250 251
Height
1512 1514 1516 1518 1520 1522 1524 1526 1529 1531 1533 1535 1537 1540 1542 1544 1547 1548 1550 1553 1554 1556 1558 1560 1562 1564 1567 1569 1570 1572 1575 1577 1579 1581 1582 1582 1584 1585 1586 1588 1588 1590 1591 1591 1592 1592 1592 1592 1593 1593 1594 1595 1595 1596 1596 1596 1596 1596 1596 1597 1598 1599 1600 1601 1601 1602 1603 1603 1604 1604 1604 1604 1604 1604 1605 1606 1606 1606 1606 1606 1607 1607 1606 1606 1606
1511 1514 1515 1517 1519 1521 1523 1525 1527 1529 1531 1533 1536 1539 1541 1543 1545 1547 1549 1551 1553 1555 1557 1559 1561 1563 1565 1568 1570 1572 1574 1576 1578 1581 1581 1581 1583 1585 1586 1587 1588 1590 1591 1591 1592 1592 1592 1593 1593 1593 1593 1595 1595 1595 1596 1596 1596 1596 1596 1597 1598 1599 1600 1601 1601 1602 1603 1603 1603 1603 1604 1604 1604 1605 1605 1606 1606 1606 1606 1606 1607 1607 1606 1606 1606
1509 1512 1514 1516 1518 1520 1522 1524 1526 1528 1530 1532 1535 1538 1540 1542 1544 1545 1548 1550 1552 1554 1556 1558 1560 1562 1565 1567 1569 1571 1573 1575 1577 1580 1581 1581 1582 1585 1585 1587 1588 1589 1590 1591 1591 1592 1592 1593 1593 1593 1594 1595 1595 1595 1595 1596 1596 1596 1597 1598 1598 1599 1600 1601 1601 1601 1602 1603 1603 1603 1603 1604 1604 1605 1605 1606 1606 1606 1606 1606 1607 1607 1606 1606 1605
1508 1510 1513 1514 1516 1518 1520 1522 1525 1527 1529 1531 1533 1536 1538 1540 1542 1544 1546 1548 1550 1553 1555 1557 1560 1562 1564 1567 1569 1571 1572 1575 1577 1578 1580 1581 1582 1583 1585 1586 1587 1589 1590 1591 1591 1592 1592 1593 1594 1594 1595 1595 1595 1596 1596 1596 1597 1597 1597 1598 1599 1599 1600 1601 1601 1601 1602 1602 1603 1603 1603 1604 1604 1604 1605 1605 1606 1606 1606 1607 1607 1607 1606 1606 1606
1507 1509 1511 1513 1514 1516 1518 1521 1524 1526 1527 1529 1530 1533 1536 1538 1540 1542 1545 1547 1549 1552 1554 1557 1559 1561 1564 1566 1568 1570 1572 1573 1576 1577 1579 1580 1581 1582 1584 1585 1586 1588 1589 1590 1591 1592 1592 1593 1594 1595 1595 1595 1596 1596 1596 1596 1597 1597 1597 1598 1598 1599 1600 1601 1601 1602 1601 1601 1601 1602 1603 1603 1603 1604 1604 1605 1606 1606 1606 1606 1607 1606 1606 1605 1605
1505 1507 1510 1511 1512 1515 1517 1519 1522 1524 1525 1527 1529 1531 1533 1536 1538 1541 1543 1546 1548 1550 1553 1555 1557 1559 1562 1564 1566 1568 1570 1571 1574 1576 1577 1579 1580 1581 1582 1584 1586 1587 1588 1589 1590 1591 1592 1593 1594 1594 1595 1595 1595 1595 1596 1596 1597 1597 1597 1598 1598 1599 1600 1601 1601 1602 1601 1601 1601 1601 1602 1603 1603 1604 1604 1605 1605 1606 1606 1606 1606 1606 1605 1605 1605
1504 1507 1508 1509 1511 1513 1514 1516 1519 1521 1523 1526 1528 1530 1532 1534 1536 1539 1541 1544 1546 1548 1551 1553 1555 1557 1560 1562 1564 1566 1568 1570 1572 1574 1576 1578 1580 1581 1582 1583 1585 1586 1587 1588 1589 1590 1591 1592 1593 1594 1594 1595 1595 1595 1596 1596 1596 1596 1597 1598 1598 1599 1599 1600 1601 1601 1601 1601 1601 1602 1603 1603 1604 1604 1604 1604 1605 1605 1606 1606 1605 1605 1605 1605 1605
1501 1505 1506 1507 1509 1510 1512 1514 1516 1519 1522 1524 1526 1528 1530 1531 1533 1536 1539 1542 1544 1546 1549 1551 1553 1555 1558 1560 1563 1565 1567 1568 1571 1573 1575 1577 1579 1581 1581 1582 1583 1585 1586 1587 1588 1589 1590 1591 1592 1593 1594 1594 1595 1595 1595 1596 1596 1596 1597 1598 1598 1599 1599 1599 1601 1601 1601 1601 1601 1602 1603 1603 1603 1604 1604 1604 1604 1605 1605 1605 1606 1605 1606 1606 1606
1498 1501 1503 1504 1505 1507 1509 1512 1514 1517 1519 1521 1523 1525 1528 1530 1532 1534 1537 1540 1542 1544 1547 1549 1551 1553 1556 1558 1561 1563 1565 1567 1569 1572 1574 1576 1578 1580 1581 1581 1582 1584 1585 1586 1588 1589 1589 1590 1591 1592 1593 1594 1594 1594 1595 1596 1596 1597 1597 1598 1598 1598 1599 1599 1600 1600 1601 1601 1601 1601 1602 1603 1603 1604 1604 1605 1605 1605 1605 1605 1606 1606 1606 1607 1607
1495 1498 1500 1500 1502 1504 1507 1509 1512 1515 1517 1519 1522 1524 1526 1528 1530 1532 1534 1537 1540 1542 1544 1547 1549 1552 1554 1556 1559 1561 1564 1566 1568 1570 1572 1575 1576 1578 1580 1580 1581 1582 1584 1585 1586 1588 1589 1590 1590 1591 1592 1593 1594 1594 1595 1596 1596 1597 1597 1597 1598 1598 1598 1599 1599 1600 1600 1601 1601 1601 1602 1603 1603 1604 1605 1605 1605 1605 1605 1605 1606 1606 1607 1607 1608
1490 1494 1495 1496 1498 1501 1504 1507 1509 1513 1515 1517 1520 1522 1524 1525 1527 1529 1532 1535 1537 1539 1542 1545 1547 1549 1552 1554 1556 1559 1561 1564 1566 1568 1570 1572 1574 1576 1578 1579 1580 1581 1583 1584 1585 1587 1588 1589 1590 1590 1591 1592 1593 1594 1595 1595 1596 1596 1597 1597 1597 1598 1598 1599 1599 1600 1600 1601 1601 1602 1603 1603 1604 1604 1605 1605 1605 1605 1605 1605 1606 1606 1606 1607 1607
1485 1489 1491 1493 1496 1498 1501 1503 1506 1509 1512 1514 1517 1520 1522 1522 1524 1527 1530 1532 1535 1537 1539 1542 1545 1547 1549 1552 1554 1557 1559 1562 1564 1565 1567 1570 1572 1574 1576 1578 1579 1580 1581 1583 1584 1585 1586 1588 1589 1590 1590 1591 1592 1593 1594 1595 1596 1596 1596 1597 1597 1598 1598 1598 1599 1600 1600 1601 1601 1602 1603 1603 1604 1605 1605 1605 1605 1605 1605 1605 1606 1606 1606 1607 1607
1481 1484 1487 1489 1492 1494 1497 1499 1501 1505 1508 1511 1514 1517 1519 1520 1521 1524 1526 1529 1532 1534 1536 1539 1542 1544 1547 1550 1552 1555 1557 1559 1562 1563 1565 1567 1570 1572 1573 1575 1577 1579 1580 1581 1582 1584 1585 1586 1588 1589 1590 1590 1591 1592 1593 1594 1595 1596 1596 1596 1597 1597 1598 1598 1599 1599 1600 1601 1601 1603 1603 1603 1604 1605 1605 1606 1606 1606 1606 1606 1606 1606 1606 1607 1607
1476 1479 1483 1485 1487 1490 1492 1495 1497 1500 1504 1507 1511 1514 1517 1517 1518 1520 1523 1526 1528 1530 1533 1536 1539 1542 1544 1547 1550 1552 1554 1557 1559 1561 1563 1565 1567 1569 1571 1573 1575 1577 1578 1579 1581 1582 1583 1585 1586 1587 1588 1589 1590 1591 1592 1593 1594 1595 1595 1595 1596 1597 1598 1598 1599 1599 1600 1600 1601 1602 1603 1604 1605 1605 1605 1606 1605 1605 1606 1605 1606 1606 1606 1606 1607
1471 1474 1477 1480 1482 1485 1488 1491 1493 1496 1500 1504 1508 1511 1514 1514 1515 1517 1520 1523 1526 1528 1530 1533 1536 1539 1542 1544 1547 1549 1552 1554 1557 1559 1561 1563 1565 1567 1569 1571 1572 1574 1576 1578 1579 1581 1582 1583 1585 1586 1587 1588 1589 1590 1591 1592 1593 1593 1594 1595 1595 1596 1597 1597 1598 1599 1599 1600 1600 1601 1601 1603 1604 1605 1605 1606 1605 1605 1605 1605 1605 1605 1606 1606 1606
1466 1468 1471 1475 1478 1481 1484 1487 1490 1493 1497 1501 1504 1508 1510 1512 1512 1514 1517 1519 1522 1525 1527 1530 1533 1536 1539 1541 1544 1547 1549 1552 1554 1556 1559 1561 1563 1565 1567 1569 1570 1572 1574 1576 1578 1579 1580 1581 1583 1585 1586 1587 1588 1589 1590 1591 1592 1592 1593 1594 1594 1595 1596 1597 1597 1598 1599 1599 1600 1600 1601 1602 1603 1604 1605 1605 1605 1605 1604 1604 1604 1605 1605 1605 1605
1460 1463 1466 1469 1473 1477 1480 1483 1485 1489 1493 1495 1498 1504 1507 1509 1509 1511 1514 1516 1519 1521 1524 1527 1530 1533 1536 1538 1541 1544 1546 1549 1551 1554 1556 1559 1561 1562 1565 1567 1569 1570 1572 1574 1575 1577 1578 1580 1581 1583 1584 1585 1587 1588 1589 1589 1590 1591 1592 1593 1593 1594 1595 1596 1596 1597 1598 1599 1599 1600 1600 1601 1601 1602 1603 1604 1604 1604 1603 1604 1604 1604 1604 1604 1604
1455 1458 1462 1465 1468 1472 1475 1478 1481 1484 1489 1490 1493 1499 1504 1506 1507 1508 1510 1513 1515 1518 1521 1524 1527 1529 1532 1535 1538 1540 1543 1546 1548 1551 1554 1556 1558 1560 1562 1564 1566 1569 1570 1571 1573 1575 1576 1578 1579 1581 1582 1584 1585 1586 1587 1588 1589 1590 1591 1592 1592 1593 1594 1594 1595 1596 1597 1598 1598 1599 1600 1600 1601 1601 1602 1602 1603 1603 1603 1603 1603 1603 1603 1603 1604
1450 1454 1458 1461 1464 1468 1470 1474 1478 1482 1486 1489 1492 1498 1503 1506 1506 1506 1507 1509 1512 1515 1518 1521 1523 1526 1529 1531 1534 1537 1540 1543 1546 1548 1551 1554 1556 1557 1560 1562 1564 1566 1568 1570 1571 1572 1574 1575 1577 1579 1580 1582 1583 1585 1586 1587 1588 1588 1589 1590 1591 1592 1593 1593 1594 1595 1596 1596 1597 1598 1599 1599 1600 1600 1601 1602 1602 1602 1602 1602 1602 1602 1602 1602 1603
1445 1450 1454 1457 1461 1464 1466 1471 1475 1479 1484 1488 1492 1497 1502 1505 1505 1504 1505 1507 1510 1512 1515 1517 1520 1523 1525 1528 1531 1534 1537 1540 1543 1546 1548 1550 1553 1555 1557 1559 1561 1563 1566 1568 1569 1570 1571 1573 1575 1576 1578 1580 1581 1583 1584 1585 1586 1587 1588 1589 1589 1590 1591 1592 1593 1594 1595 1595 1596 1597 1597 1598 1599 1599 1600 1600 1601 1601 1601 1601 1601 1601 1601 1601 1601
1441 1445 1450 1454 1458 1461 1464 1469 1473 1478 1482 1485 1488 1492 1498 1504 1505 1503 1503 1504 1507 1509 1511 1513 1516 1519 1522 1524 1527 1531 1534 1537 1540 1542 1545 1547 1550 1552 1554 1557 1559 1561 1563 1565 1567 1568 1569 1571 1572 1574 1576 1577 1579 1581 1582 1583 1584 1586 1586 1587 1588 1589 1590 1591 1592 1592 1593 1594 1595 1595 1596 1596 1597 1598 1598 1599 1599 1600 1600 1600 1600 1600 1600 1600 1600
1436 1441 1446 1451 1456 1459 1463 1467 1471 1475 1478 1481 1484 1486 1492 1499 1502 1503 1502 1501 1503 1504 1506 1509 1512 1515 1518 1521 1524 1527 1530 1533 1536 1539 1541 1544 1546 1549 1551 1554 1556 1558 1560 1562 1564 1565 1567 1568 1570 1572 1573 1575 1576 1578 1580 1581 1583 1584 1585 1586 1586 1587 1588 1589 1590 1591 1592 1593 1593 1594 1594 1595 1595 1596 1597 1597 1598 1599 1599 1599 1599 1599 1599 1599 1599
1432 1438 1443 1447 1452 1457 1460 1464 1467 1470 1472 1477 1481 1483 1486 1492 1497 1501 1501 1499 1499 1500 1502 1505 1508 1511 1514 1517 1521 1524 1527 1530 1532 1535 1538 1540 1543 1546 1548 1550 1553 1555 1557 1559 1561 1563 1564 1566 1568 1570 1571 1573 1574 1576 1578 1579 1580 1582 1583 1584 1585 1585 1586 1587 1589 1589 1590 1591 1592 1592 1593 1594 1594 1594 1595 1596 1596 1597 1598 1598 1598 1598 1598 1598 1598
1430 1434 1439 1444 1449 1454 1457 1460 1463 1466 1469 1473 1477 1480 1482 1486 1491 1497 1498 1497 1497 1498 1499 1501 1503 1507 1510 1513 1517 1520 1523 1526 1529 1532 1534 1537 1540 1542 1545 1547 1550 1553 1554 1556 1558 1560 1562 1564 1565 1567 1569 1571 1572 1573 1575 1577 1578 1580 1581 1582 1583 1584 1585 1586 1587 1588 1589 1590 1590 1591 1592 1592 1593 1593 1593 1594 1595 1595 1596 1597 1597 1597 1597 1597 1597
1427 1431 1434 1439 1444 1449 1454 1456 1459 1463 1466 1469 1473 1476 1478 1481 1485 1490 1494 1496 1495 1496 1497 1497 1499 1503 1506 1509 1512 1516 1519 1522 1525 1528 1530 1534 1537 1539 1541 1544 1547 1550 1551 1553 1555 1557 1559 1561 1563 1564 1566 1568 1569 1570 1572 1574 1575 1577 1579 1580 1581 1582 1583 1583 1585 1586 1587 1588 1588 1589 1590 1590 1591 1591 1592 1592 1593 1593 1594 1594 1595 1595 1596 1596 1596
1423 1427 1430 1435 1441 1446 1450 1452 1455 1459 1462 1465 1468 1471 1474 1477 1480 1485 1490 1493 1493 1493 1494 1494 1496 1499 1502 1505 1508 1511 1514 1517 1521 1524 1527 1530 1533 1535 1538 1540 1543 1546 1548 1550 1552 1554 1556 1558 1560 1562 1563 1565 1567 1568 1569 1571 1573 1574 1576 1578 1579 1580 1580 1581 1582 1583 1584 1585 1586 1587 1588 1588 1589 1589 1590 1590 1591 1592 1592 1592 1593 1593 1594 1594 1594
1423 1426 1428 1432 1437 1442 1446 1449 1452 1455 1459 1461 1464 1467 1470 1472 1476 1481 1486 1490 1491 1491 1491 1492 1493 1495 1498 1500 1503 1506 1509 1513 1516 1520 1524 1527 1530 1532 1534 1536 1539 1542 1545 1547 1549 1551 1553 1555 1557 1559 1561 1562 1564 1565 1567 1568 1570 1572 1573 1575 1576 1577 1578 1579 1580 1581 1582 1583 1584 1585 1585 1586 1587 1587 1588 1589 1589 1590 1590 1590 1591 1591 1592 1592 1592
1426 1428 1430 1432 1436 1439 1442 1446 1449 1452 1456 1458 1461 1464 1466 1468 1473 1478 1482 1486 1487 1488 1488 1489 1490 1492 1494 1496 1498 1502 1505 1509 1513 1517 1521 1523 1526 1529 1531 1533 1536 1539 1542 1544 1545 1547 1550 1552 1554 1556 1558 1560 1561 1563 1564 1566 1568 1569 1571 1572 1573 1574 1575 1576 1577 1578 1580 1581 1581 1582 1583 1583 1584 1585 1586 1586 1587 1588 1588 1588 1589 1589 1590 1590 1590
1429 1431 1434 1436 1437 1439 1442 1444 1446 1449 1452 1454 1457 1461 1463 1466 1470 1474 1479 1482 1484 1484 1485 1486 1487 1488 1490 1492 1495 1499 1502 1506 1510 1513 1517 1520 1523 1526 1529 1531 1532 1535 1538 1541 1543 1544 1546 1549 1551 1553 1555 1557 1558 1560 1561 1562 1565 1567 1568 1569 1570 1572 1573 1574 1575 1576 1577 1578 1579 1580 1580 1581 1582 1582 1583 1584 1585 1586 1586 1586 1587 1587 1588 1588 1588
1434 1436 1437 1438 1439 1441 1442 1443 1445 1447 1450 1452 1454 1457 1460 1463 1467 1470 1474 1477 1479 1481 1482 1483 1483 1485 1487 1489 1492 1495 1499 1503 1506 1509 1513 1516 1520 1523 1526 1528 1529 1532 1535 1537 1540 1542 1543 1545 1548 1549 1551 1553 1555 1556 1557 1559 1562 1564 1566 1567 1568 1569 1570 1571 1572 1573 1574 1575 1576 1577 1578 1579 1580 1580 1581 1582 1583 1583 1584 1584 1585 1585 1585 1585 1585
1440 1441 1440 1440 1441 1442 1442 1442 1443 1445 1447 1450 1452 1454 1457 1460 1464 1467 1470 1473 1475 1477 1478 1480 1481 1483 1486 1488 1490 1493 1495 1498 1502 1505 1509 1513 1517 1520 1523 1525 1527 1529 1531 1534 1537 1539 1540 1542 1544 1546 1548 1550 1551 1553 1554 1556 1558 1561 1563 1564 1565 1566 1567 1569 1570 1571 1572 1573 1574 1575 1576 1577 1578 1578 1579 1580 1580 1581 1581 1582 1583 1583 1583 1583 1583
1443 1444 1443 1443 1443 1444 1446 1447 1449 1449 1450 1450 1451 1452 1455 1458 1461 1464 1466 1470 1472 1474 1475 1478 1480 1482 1485 1486 1488 1490 1492 1495 1498 1501 1505 1509 1513 1516 1519 1522 1524 1526 1528 1531 1533 1536 1538 1539 1541 1543 1544 1546 1548 1549 1551 1553 1555 1558 1560 1562 1563 1564 1565 1566 1567 1568 1569 1570 1571 1572 1573 1574 1575 1576 1577 1577 1578 1578 1578 1579 1580 1581 1581 1581 1580
1447 1447 1447 1447 1446 1446 1448 1450 1453 1455 1455 1454 1453 1454 1456 1457 1460 1462 1464 1467 1470 1471 1473 1476 1478 1480 1482 1483 1486 1488 1490 1492 1494 1497 1501 1505 1509 1512 1515 1518 1521 1523 1525 1528 1530 1532 1535 1537 1538 1540 1541 1543 1545 1547 1548 1550 1552 1554 1557 1559 1560 1561 1562 1563 1564 1565 1566 1567 1568 1570 1571 1571 1572 1573 1574 1575 1575 1575 1576 1576 1577 1577 1578 1578 1578
1451 1451 1450 1449 1447 1447 1447 1448 1451 1453 1454 1453 1453 1454 1456 1457 1459 1461 1463 1466 1468 1470 1471 1473 1475 1477 1479 1481 1483 1485 1487 1489 1491 1494 1497 1501 1504 1508 1511 1514 1518 1520 1522 1524 1527 1529 1532 1534 1535 1537 1538 1540 1542 1544 1545 1547 1549 1551 1554 1556 1557 1559 1559 1560 1561 1562 1563 1564 1565 1566 1567 1568 1569 1570 1571 1572 1572 1572 1573 1573 1574 1574 1574 1575 1575
1454 1453 1452 1451 1450 1449 1449 1449 1450 1451 1452 1451 1451 1452 1455 1456 1459 1460 1462 1465 1467 1469 1469 1469 1471 1474 1476 1478 1481 1482 1485 1487 1489 1492 1495 1497 1500 1504 1507 1510 1514 1516 1519 1521 1524 1526 1528 1531 1533 1534 1536 1537 1539 1541 1542 1544 1546 1548 1550 1552 1554 1556 1557 1558 1559 1559 1560 1561 1562 1563 1564 1565 1566 1567 1568 1569 1569 1570 1570 1570 1570 1570 1571 1571 1571
1455 1454 1453 1452 1451 1451 1451 1450 1449 1450 1450 1450 1449 1451 1453 1455 1457 1458 1459 1462 1465 1467 1466 1466 1468 1470 1472 1474 1477 1480 1482 1484 1487 1489 1491 1494 1497 1500 1503 1506 1510 1513 1515 1517 1520 1523 1525 1527 1530 1532 1533 1535 1536 1538 1539 1541 1543 1545 1547 1549 1551 1553 1554 1555 1556 1557 1558 1558 1559 1560 1560 1561 1562 1563 1564 1565 1566 1567 1567 1567 1567 1567 1567 1567 1567
1454 1453 1452 1452 1452 1451 1451 1451 1449 1449 1449 1448 1448 1449 1452 1454 1455 1454 1455 1458 1461 1463 1463 1463 1464 1466 1468 1470 1473 1476 1478 1481 1483 1485 1488 1490 1493 1496 1500 1503 1506 1509 1512 1514 1516 1519 1522 1524 1526 1528 1530 1532 1533 1535 1536 1538 1540 1541 1544 1546 1547 1549 1550 1552 1553 1554 1555 1555 1556 1556 1557 1558 1558 1559 1560 1562 1563 1564 1564 1564 1564 1564 1564 1563 1563
1452 1451 1450 1450 1449 1449 1449 1449 1448 1448 1449 1449 1449 1448 1450 1452 1452 1452 1453 1455 1456 1458 1459 1459 1460 1462 1464 1466 1469 1472 1475 1477 1479 1481 1484 1487 1490 1493 1497 1500 1503 1506 1508 1510 1512 1515 1518 1520 1522 1524 1526 1528 1530 1532 1533 1535 1537 1538 1540 1542 1544 1545 1547 1548 1549 1550 1551 1552 1552 1553 1554 1554 1555 1556 1557 1559 1560 1561 1561 1561 1562 1562 1561 1561 1561
1451 1450 1448 1447 1446 1446 1446 1446 1447 1447 1447 1448 1448 1446 1446 1448 1448 1449 1451 1451 1452 1453 1453 1454 1455 1458 1461 1463 1466 1469 1471 1473 1475 1478 1481 1484 1487 1491 1494 1497 1500 1503 1506 1508 1509 1512 1514 1516 1518 1520 1522 1524 1527 1528 1530 1532 1533 1535 1537 1538 1540 1542 1543 1544 1545 1546 1547 1548 1548 1549 1550 1551 1552 1553 1554 1555 1556 1557 1557 1558 1558 1559 1558 1557 1558
1449 1449 1447 1445 1444 1443 1443 1443 1443 1444 1444 1445 1445 1443 1442 1442 1443 1445 1446 1446 1447 1447 1449 1451 1453 1456 1459 1461 1463 1465 1467 1470 1472 1475 1478 1481 1484 1488 1491 1494 1497 1500 1503 1506 1507 1509 1511 1513 1515 1517 1518 1520 1522 1524 1526 1528 1530 1532 1534 1535 1537 1538 1539 1540 1542 1542 1543 1544 1544 1545 1546 1547 1549 1550 1551 1552 1553 1553 1554 1554 1555 1554 1554 1554 1555
1448 1447 1445 1443 1441 1441 1440 1439 1439 1439 1440 1441 1440 1439 1437 1437 1438 1439 1440 1440 1441 1443 1446 1449 1451 1453 1456 1457 1459 1462 1464 1467 1470 1473 1476 1478 1481 1484 1487 1490 1493 1496 1499 1502 1504 1506 1508 1510 1512 1514 1515 1516 1518 1520 1522 1524 1526 1528 1530 1532 1533 1533 1535 1537 1538 1539 1539 1540 1540 1541 1542 1544 1545 1546 1548 1549 1549 1550 1550 1550 1550 1550 1550 1551 1551
1446 1444 1443 1441 1438 1436 1436 1435 1435 1435 1435 1435 1435 1434 1433 1432 1433 1434 1434 1436 1438 1440 1444 1447 1448 1450 1453 1454 1456 1459 1462 1465 1468 1470 1472 1475 1477 1480 1483 1486 1490 1492 1495 1498 1501 1503 1505 1507 1509 1510 1512 1513 1514 1516 1518 1520 1522 1524 1526 1527 1528 1529 1531 1533 1534 1534 1535 1536 1537 1538 1538 1540 1541 1543 1544 1545 1545 1546 1546 1546 1546 1546 1547 1547 1547
1443 1442 1441 1439 1436 1434 1432 1431 1431 1431 1430 1429 1429 1429 1428 1427 1428 1429 1430 1433 1436 1437 1440 1443 1445 1447 1450 1452 1454 1457 1460 1462 1464 1466 1468 1471 1473 1476 1479 1481 1485 1488 1491 1494 1497 1500 1502 1504 1506 1507 1509 1510 1512 1513 1514 1516 1518 1520 1522 1523 1524 1525 1527 1528 1529 1530 1531 1532 1533 1534 1535 1536 1537 1538 1540 1540 1541 1542 1542 1542 1542 1543 1543 1543 1543
1442 1441 1439 1437 1434 1432 1429 1428 1427 1426 1425 1424 1423 1424 1424 1423 1423 1425 1427 1430 1433 1434 1437 1440 1442 1444 1447 1450 1452 1455 1457 1459 1462 1464 1466 1468 1470 1472 1474 1477 1480 1484 1487 1490 1492 1495 1498 1500 1502 1504 1505 1507 1509 1509 1510 1512 1514 1516 1518 1519 1520 1522 1523 1524 1525 1526 1527 1529 1529 1530 1531 1532 1533 1534 1535 1536 1537 1537 1537 1538 1539 1539 1539 1539 1538
1442 1440 1438 1435 1433 1430 1427 1425 1424 1423 1422 1421 1419 1419 1420 1420 1420 1422 1424 1426 1429 1431 1433 1435 1438 1441 1444 1447 1450 1453 1455 1457 1459 1461 1463 1464 1466 1468 1470 1473 1476 1479 1482 1485 1488 1490 1493 1496 1498 1500 1502 1503 1505 1506 1507 1508 1510 1512 1513 1515 1516 1518 1519 1520 1522 1523 1524 1525 1526 1527 1528 1529 1530 1530 1531 1532 1533 1533 1533 1534 1535 1535 1535 1535 1534
1442 1439 1437 1433 1430 1427 1424 1422 1421 1420 1419 1417 1416 1415 1416 1417 1418 1419 1420 1423 1426 1427 1429 1432 1434 1437 1441 1444 1447 1450 1452 1454 1457 1458 1460 1461 1463 1464 1466 1468 1471 1474 1478 1480 1483 1485 1488 1491 1494 1496 1498 1500 1501 1502 1503 1504 1506 1508 1509 1510 1512 1514 1516 1517 1518 1520 1521 1521 1522 1524 1525 1526 1527 1528 1528 1529 1529 1530 1530 1531 1531 1531 1531 1531 1531
1442 1439 1436 1432 1428 1425 1422 1419 1418 1417 1416 1415 1413 1413 1413 1414 1415 1416 1418 1420 1422 1424 1426 1428 1431 1434 1438 1441 1444 1446 1448 1450 1453 1455 1457 1459 1460 1461 1462 1463 1466 1469 1472 1475 1478 1481 1483 1486 1489 1491 1494 1496 1497 1498 1499 1500 1502 1503 1504 1506 1508 1510 1512 1514 1515 1515 1516 1518 1519 1520 1522 1523 1524 1525 1525 1526 1526 1527 1527 1527 1527 1527 1528 1528 1528
1442 1438 1434 1430 1426 1423 1420 1417 1416 1415 1414 1413 1412 1410 1410 1411 1412 1413 1415 1417 1419 1421 1423 1425 1428 1431 1435 1438 1440 1442 1444 1446 1448 1450 1453 1454 1455 1456 1457 1458 1460 1463 1466 1469 1473 1475 1478 1480 1483 1486 1489 1491 1493 1494 1494 1495 1496 1498 1499 1502 1504 1506 1508 1509 1510 1511 1513 1515 1516 1517 1518 1519 1520 1521 1522 1522 1522 1523 1523 1524 1524 1524 1525 1526 1526
1441 1437 1433 1429 1425 1421 1418 1416 1414 1414 1413 1412 1410 1408 1408 1408 1410 1411 1413 1414 1415 1418 1420 1423 1425 1429 1432 1434 1436 1438 1440 1442 1444 1446 1447 1448 1449 1451 1452 1454 1456 1459 1462 1465 1467 1470 1473 1476 1479 1482 1484 1486 1488 1489 1490 1491 1492 1494 1496 1498 1500 1502 1503 1505 1507 1509 1511 1512 1512 1513 1514 1515 1516 1517 1518 1518 1519 1519 1520 1521 1521 1522 1523 1523 1523
1440 1436 1431 1426 1423 1419 1416 1414 1413 1412 1411 1410 1408 1407 1406 1406 1408 1409 1411 1412 1413 1415 1417 1420 1422 1425 1427 1430 1431 1433 1435 1437 1439 1440 1441 1442 1444 1446 1449 1451 1453 1456 1459 1462 1464 1467 1469 1473 1476 1478 1479 1481 1483 1485 1487 1489 1490 1491 1494 1495 1497 1499 1501 1503 1505 1508 1508 1508 1508 1509 1510 1511 1513 1514 1514 1515 1516 1516 1517 1518 1519 1520 1520 1520 1521
1439 1435 1429 1424 1421 1417 1415 1413 1411 1410 1409 1407 1406 1405 1404 1404 1405 1406 1408 1410 1411 1412 1414 1415 1417 1420 1422 1424 1426 1427 1429 1431 1432 1433 1434 1436 1439 1441 1444 1447 1450 1453 1456 1459 1462 1465 1468 1470 1473 1475 1476 1478 1481 1483 1485 1487 1488 1489 1491 1493 1495 1497 1499 1501 1503 1505 1504 1504 1505 1505 1507 1508 1509 1510 1511 1512 1513 1514 1515 1515 1516 1517 1518 1519 1520